User: anonymous   Login
Location: Bangkok
(13.7500°N, 100.5170°E)
Time: 13:53:02
(UTC+07:00)
Language:

SPOT 1/Viking Rocket - Orbit

View from above orbital plane
View from above orbital plane
View from above satellite
View from above satellite

Ground track
Ground track

The orbit data is extracted from the following two-line orbital elements,

1 16615U 86019C   15209.18661762  .00000036  00000-0  30659-4 0  9993
2 16615 098.7046 267.4349 0010600 274.6796 148.8314 14.31502364540779
Epoch (UTC): 28 July 2015 04:28:43
Eccentricity: 0.0010600
inclination: 98.7046°
perigee height: 779 km
apogee height: 794 km
right ascension of ascending node: 267.4349°
argument of perigee: 274.6796°
revolutions per day: 14.31502364
mean anomaly at epoch: 148.8314°
orbit number at epoch: 54077

The dashed part of the orbit path shows where the satellite is in the earth's shadow,  

DLR